Hourly Data Report for August 21, 2015

All times are specified in Local Standard Time (LST). Add 1 hour to adjust for Daylight Saving Time where and when it is observed.

TORONTO INTL A
ONTARIO

43°40'36.000" N
79°37'50.000" W
173.40 m
6158731
71624
YYZ

Download Data

Hourly Data (August 2015)
Hourly Data Report for August 21, 2015
Temp Definition
°C
Dew Point Temp Definition
°C
Rel Hum Definition
%
Wind Dir Definition
10's deg

Wind Spd Definition
km/h
Visibility Definition
km
Stn Press Definition
kPa
Hmdx Definition


Wind Chill Definition


Weather Definition


TIME
00:00 Legend Double Dagger 17.9 12.2 69 26 18 24.1 99.31     LegendNANA
01:00 Legend Double Dagger 16.5 12.1 75 26 16 24.1 99.32     Mainly Clear
02:00 Legend Double Dagger 15.4 12.2 81 25 13 24.1 99.35     LegendNANA
03:00 Legend Double Dagger 15.9 12.3 79 24 13 24.1 99.42     LegendNANA
04:00 Legend Double Dagger 16.1 12.5 79 23 11 24.1 99.45     Mostly Cloudy
05:00 Legend Double Dagger 16.3 12.7 79 24 13 24.1 99.51     LegendNANA
06:00 Legend Double Dagger 15.9 12.7 81 24 14 24.1 99.57     LegendNANA
07:00 Legend Double Dagger 17.9 13.1 73 24 17 24.1 99.60     Mostly Cloudy
08:00 Legend Double Dagger 18.9 13.0 68 25 18 24.1 99.67     LegendNANA
09:00 Legend Double Dagger 19.0 12.8 67 27 18 24.1 99.71     LegendNANA
10:00 Legend Double Dagger 18.1 12.2 68 27 20 24.1 99.78     Mostly Cloudy
11:00 Legend Double Dagger 19.0 12.1 64 26 21 24.1 99.82     LegendNANA
12:00 Legend Double Dagger 21.4 13.4 60 26 21 24.1 99.81     LegendNANA
13:00 Legend Double Dagger 20.9 13.0 60 24 21 24.1 99.85     Mostly Cloudy
14:00 Legend Double Dagger 22.3 13.8 58 26 22 24.1 99.84 26   LegendNANA
15:00 Legend Double Dagger 21.8 12.8 56 29 21 24.1 99.84     LegendNANA
16:00 Legend Double Dagger 21.4 11.6 53 27 19 24.1 99.84     Mostly Cloudy
17:00 Legend Double Dagger 22.0 11.5 51 27 17 24.1 99.82     LegendNANA
18:00 Legend Double Dagger 20.9 12.2 57 28 18 24.1 99.84     LegendNANA
19:00 Legend Double Dagger 21.1 11.0 52 29 23 24.1 99.85     Mostly Cloudy
20:00 Legend Double Dagger 19.3 11.7 61 29 14 24.1 99.90     LegendNANA
21:00 Legend Double Dagger 18.7 10.9 60 31 13 24.1 99.93     LegendNANA
22:00 Legend Double Dagger 17.7 10.2 61 31 13 24.1 99.97     LegendNANA
23:00 Legend Double Dagger 16.6 10.7 68 36 1 24.1 100.00     LegendNANA

Notes on Data Quality.

Legend

  • E = Estimated
  • M = Missing
  • NA = Not Available
  • ‡ = Partner data that is not subject to review by the National Climate Archives
Date modified: